Погода Октябрьский Городок

Поиск расширенной информации на нашем сайте:

Полезная информация:

Новости сайта



02.01.2020
Опубликован Долгосрочный прогноз погоды по городам России и ближнего зарубежья на январь 2020 года.
Карты: Прогноз на январь и февраль 2020 года, Сравнение прогнозируемой аномалии приземной температуры воздуха на январь 2020 года по разным моделям.




Погода Октябрьский Городок - сегодня

Время (UTC), дата Ветер
(°,м/с) 
Видим.   Явления Облачность Т
(°С)
Тd
(°С)
f(%) Тe
(°С)
Pmin
(гПа)
dP
(гПа)
Po
(мм)
O2
(г/м3)
Тmin Tmax R s Состояние
почвы
12 24.02.21 290 (З) 20000 м    9/0 средняя 
[Ac trans]
-19.9 -25.2 63 -27  1039.8  -0.5  759  332           
18 24.02.21 210 (ЮЗ) 10 км    6/0 верхняя 
[Cs]
-23 -25.9 77 -26  1039.8  -0.3  759  336           
21 24.02.21 210 (ЮЗ) 10 км    ясно 
-25 -27.2 82 -26  1039.3  -0.7  758  338           
00 25.02.21 тихо ()   10 км    10/0 верхняя 
[Cs]
-25.5 -27.7 82 -26  1038  -1.2  757  338           
03 25.02.21 тихо ()   10 км    10/0 верхняя 
[Cs]
-21.5 -24.3 78 -22  1035.9  -1.6  756  332  -26      30  равномерный
сухой снег
100% 
06 25.02.21 190 (Ю) 20000 м  слаб. снег  10/0 средняя 
[As op]
-18.6 -21.3 79 -19  1033  -2.6  754  328           
09 25.02.21 210 (ЮЗ) 4000 м  слаб. снег  10/0 средняя 
[As op]
-13.8 -16.2 82 -19  1028.3  -4  751  320           
12 25.02.21 210 (ЮЗ) 4000 м  слаб. снег  10/0 средняя 
[As op]
-11.7 -13.2 89 -17  1023.4  -4.6  748  316           
15 25.02.21 220 (ЮЗ) 5{11}  2000 м  снег  10/0 средняя 
[As op]
-10.9 -12.1 91 -16  1020  -3.2  745  314    -10.9     
18 25.02.21 230 (ЮЗ) 4{10}  10 км  позёмок{снег}  10/0 средняя 
[As op]
-9.2 -10.5 90 -13  1017.4  -2.4  743  311           
21 25.02.21 250 (З) 4000 м  слаб. снег  10/0 средняя 
[As op]
-7.1 -7.7 95 -10  1015.9  -1.2  742  308           
00 26.02.21 260 (З) 10 км  {снег}  10/10 540 м 
[Ns]
-4.5 -4.9 97 -7  1015.1  -0.5  742  305           
03 26.02.21 250 (З) 4000 м  дымка  10/10 500 м 
[Ns]
-2.1 -2.4 98 -3  1014.7  -0.2  742  301  -10.9    34  равномерный
сухой снег
100% 
06 26.02.21 260 (З) 0500 м  туман  ?/?  
-0.1 -0.3 99 -3  1014.3  -0.2  742  299           
09 26.02.21 220 (ЮЗ) 10 км  {снег, туман}  10/0 средняя 
[As op]
+1 +0.6 97 -1  1013.5  -0.7  741  297           
12 26.02.21 220 (ЮЗ) 10 км  слаб. дождь{снег}  10/0 
[]
+0.9 +0.6 98 -1  1011.3  -2.1  740  297           
15 26.02.21 220 (ЮЗ) 10 км  в посл. час туман{дождь}  10/0 средняя 
[As op]
+1.2 +1 99 -2  1008.4  -2.8  737  296    +1.4     
18 26.02.21 250 (З) 5{11}  10 км  {дождь, туман}  10/0 средняя 
[Ac und]
+1.8 +1.6 99 -1  1005.9  -2.4  736  294           
21 26.02.21 260 (З) 5{10}  10 км    10/0 средняя 
[Ac und]
+2.3 +2 98 1004.5  -1.3  735  293           
00 27.02.21 260 (З) 7{11}  10 км    9/0 средняя 
[Ac trans]
+1.6 +1 96 -2  1004.1  -0.4  734  294           
03 27.02.21 260 (З) 10 км    8/0 средняя 
[Ac trans]
-0.1 -0.5 97 -4  1003.3  -1  734  296  -0.1      28  равномерный
мокрый или
старый снег
100% 
06 27.02.21 260 (З) 6{10}  20000 м    9/0 средняя 
[Ac trans]
+1.1 +0.5 96 -2  1002.8  -0.3  733  294  -0.6         
09 27.02.21 240 (ЮЗ) 4{10}  20000 м    10/0 средняя 
[Ac und]
+1.8 +0.2 89 1002.6  -0.2  733  293           
12 27.02.21 260 (З) 7-10{12}  20000 м    10/0 средняя 
[Ac und]
+1.9 -0.3 85 -2  1002  -0.6  733  293           
15 27.02.21 260 (З) 6{12}  20000 м    10/0 средняя 
[Ac und]
+1 -0.3 91 -2  1002.1  733  294    +2.3       
Время (UTC), дата Ветер
(°,м/с) 
Видим.   Явления Облачность Т
(°С)
Тd
(°С)
f(%) Тe
(°С)
Pmin
(гПа)
dP
(гПа)
Po
(мм)
O2
(г/м3)
Тmin Tmax R s Состояние
почвы

Для получения пояснительной информации подведите курсор к названию столбца.

ПОГОДА Октябрьский Городок - архив

Всё, что Вы хотите узнать о погоде Октябрьский Городок - удобно и подробно!

Выберите нужную дату (начиная с 1 января 2019* года) и нажмите кнопку "Найти".
Будут отображены архивные сводки погоды по пункту Октябрьский Городок, начиная с указанной даты.


Отображать данные в формате CSV (для использования в таблицах Excel)


Внимание! Наш архив погоды предназначен исключительно для личного некоммерческого использования в познавательных целях. Если Вам необходимы официальные справки о состоянии погоды (для производственных, юридических, коммерческих и т.п. целей), обращайтесь в органы Росгидромета.

*Примечание: данная дата относится к архиву по метеостанциям СССР (Россия, СНГ, Балтия).
Архив по метеостанциям Зарубежной Европы и Азии (кроме Китая) хранится 10 дней, по другим регионам земного шара (Китай, Африка, Америка, Австралия, Океания) - 1 день.

Октябрьский Городок - район местоположения метеостанции


Название, широта, долгота, высота метеостанции:
Октябрьский Городок 51.6°ш. 45.4°д. 201 м над ур. моря [Российская Федерация]

Дополнительная информация

В oтличие oт бoльшинства пoгoдных сайтoв мы публикуем пoдрoбную метеoинфoрмацию в детальнoм прoфессиoнальнoм фoрмате.

Характеристики температуры и влажнoсти вoздуха измеряются на высoте 2 м в тени вдали oт зданий и деревьев.
Скoрoсть ветра измеряется на высoте 10 м (на урoвне рoста челoвека скoрoсть ветра ниже в 1.5-2 раза). Если метеoстанция нахoдится в гoрoде или в лесу, тo скoрoсть ветра занижена на 2-4 м/с пo сравнению с oткрытым местoм. Скoрoсть ветра над акватoриями крупных рек и oзёр, а также на вершинах хoлмoв на 2-5 м/с выше, чем в oбычных услoвиях.
Атмoсфернoе давление в разных тoчках местнoсти мoжет значительнo oтличаться oт давления на метеoстанции, в зависимoсти oт услoвий рельефа (при пoдъёме на 10 м давление пoнижается примернo на 1 мм рт.ст.).